ONEWEB-0043, 45149

Orbit data source: Space-Track

ONEWEB-0043, 45149 is a payload satellite owned by One Web (UK) in LEO that was launched on Thu, 06 Feb 2020 UTC via a SOYUZ-2-1B launch vehicle from the Tyuratam Missile And Space Complex (TTMTR). Payload-class satellites include a variety of spacecraft equipped with specific instruments for various scientific and technological missions. These include communications satellites like Starlink; space stations such as the ISS; scientific satellites like the Hubble; Earth observation satellites from companies like Planet Labs, Umbra, and HawkEye 360; GPS; miniature CubeSats for education and research; and military/defense satellites.

Loading next visibility...
Identifier
45149, 2020-008U
Orbit
LEO
Country
Flag of UKUK
Related business
Manufacturer
One Web
Mission
Operational Commercial Communications
Bus & Motor
ARROW, Unknown motor
Mass
148 kg wet, ~140 kg dry
Launch date (UTC)
2020-02-06 (6 years ago)
Launch vehicle
SOYUZ-2-1B
Launch site
Tyuratam Missile And Space Complex (TTMTR)
Object type
Payload
Rocket body
Debris
Shape & HBR
Trap Box + 2 Pan, 6.7 m
Radar Cross Section
3.464 m², Large (>1 m²)

Expand to show TLE details & history
Last TLE update: 7 hours ago

TLE from 7 hours ago
0 ONEWEB-0043
1 45149U 20008U   26035.11277087 -.00000313  00000-0 -93364-3 0  9999
2 45149  87.8758  62.7829 0001921  76.0830 284.0511 13.10375922290756
Epoch: 2026-02-04T02:42Z
TLE epoch observation values (Epoch: 2026-02-04T02:42:23.403Z)
Latitude
Longitude
-112.09863°
Altitude
1,224.238 km
Speed
7.242 km/s
True Right ascension
04h 11m 07s
True Declination
0° 00' 00"
Sunlit
Object was in daylight at epoch
Visualization orbit readout
Latitude
Unknown
Longitude
Unknown
Altitude
Unknown
Speed
Unknown
Apparent Right ascension
Unknown
Apparent Declination
Unknown
Sunlit
N/A
Visualization observer readout
Local Sidereal Time
11:45:34
Azimuth
Unknown
Elevation
Unknown
Doppler factor
Unknown
Orbital elements
Apogee altitude
1,220.284 km
Perigee altitude
1,217.366 km
Semi-major axis
7,596.962 km
Eccentricity
0.00019
Inclination
87.8758°
RAAN
62.7829°
Arg. of periapsis
76.083°
True anomaly
284.02974°
Mean anomaly
284.0511°
Eccentric anomaly
284.04042°
Mean motion
3.27781 °/min
Orbital period
109.83 mins
BSTAR
-0.00093364
Loading maneuver chart data...
Computing Atmospheric mass density...
Loading historical data...
Loading historical data...
Loading historical data...
Loading historical data...
Loading historical data...
Loading historical data...
Loading historical data...

Documentation

Showing up to 5 results
|